Flag for Slovakia Weather past 2 weeks in Bratislava, Slovakia

Now
63 °F

Sunny.


Feels Like: 63 °F
Forecast: 52 / 70 °F
Wind: No wind

Location: Bratislava Ivanka

Current Time: Aug 20, 2014 at 8:50:12 AM

Latest Report: Aug 20, 2014 at 8:30 AM


Visibility: 10 mi

Pressure: 29.98 "Hg

Humidity: 83%

Dew point: 57 °F

Location of BratislavaLocation

Historic Weather in Bratislava — Graph

°F

Bratislava temperature yesterday

Maximum temperature yesterday: 73 °F (at 11:30 AM)
Minimum temperature yesterday: 59 °F (at 5:30 AM)
Average temperature yesterday: 66 °F

Past Weeks' High & Low Weather Summary

 TemperatureHumidityPressure
High86 °F (Aug 9, 2:30 PM)94% (Aug 9, 5:00 AM)30.07 "Hg (Aug 9, 5:00 AM)
Low50 °F (Aug 18, 6:00 AM)35% (Aug 8, 4:30 PM)29.62 "Hg (Aug 13, 10:00 PM)
Average69 °F69%29.94 "Hg
* Reported Aug 5 7:00 AM — Aug 20 7:30 AM, Bratislava, Weather by CustomWeather, © 2014

Note: Actual official high and low records may vary slightly from our data, if they occured in-between our weather recording intervals... More about our weather records

Advertising

Bratislava weather history for previous 24 hours

 ConditionsComfort  
Time TempWeatherWind HumidityBarometerVisibility
7:30 AM
Aug 20
61 °FSunny.No wind88%29.98 "Hg10 mi
7:00 AM59 °FBroken clouds.2 mph94%29.98 "HgN/A
6:30 AM59 °FClear.No wind94%29.98 "Hg10 mi
6:00 AM59 °FLight rain. Clear.3 mph94%29.98 "HgN/A
5:30 AM59 °FPassing clouds.No wind88%29.98 "HgN/A
5:00 AM59 °FClear.2 mph88%29.95 "Hg10 mi
4:30 AM59 °FClear.No wind88%29.95 "Hg10 mi
4:00 AM59 °FClear.1 mph88%29.95 "Hg10 mi
3:30 AM59 °FClear.1 mph88%29.95 "Hg10 mi
3:00 AM57 °FClear.5 mph94%29.95 "Hg10 mi
2:30 AM57 °FClear.No wind94%29.95 "Hg10 mi
2:00 AM57 °FClear.2 mph94%29.95 "Hg10 mi
1:30 AM59 °FClear.No wind88%29.95 "Hg10 mi
1:00 AM59 °FClear.No wind94%29.95 "Hg10 mi
12:30 AM59 °FClear.3 mph88%29.95 "Hg10 mi
12:00 AM59 °FClear.3 mph88%29.95 "Hg10 mi
11:30 PM
Aug 19
59 °FClear.5 mph88%29.95 "Hg10 mi
11:00 PM59 °FFog.1 mph94%29.95 "HgN/A
10:30 PM61 °FCool.No wind94%29.95 "HgN/A
10:00 PM63 °FLight fog.No wind88%29.95 "HgN/A
9:30 PM64 °FClear.No wind83%29.95 "Hg10 mi
9:00 PM64 °FClear.1 mph83%29.95 "Hg10 mi
8:30 PM66 °FSunny.No wind78%29.92 "Hg10 mi
8:00 PM66 °FSunny.No wind78%29.92 "Hg10 mi
7:30 PM66 °FPartly sunny.No wind78%29.92 "HgN/A
7:00 PM66 °FLight rain. Partly sunny.5 mph78%29.92 "HgN/A
6:30 PM68 °FLight rain. Broken clouds.5 mph69%29.92 "HgN/A
6:00 PM68 °FLight rain. Broken clouds.3 mph69%29.92 "HgN/A
5:30 PM70 °FLight rain. Broken clouds.No wind64%29.92 "HgN/A
5:00 PM70 °FSunny.No wind60%29.92 "Hg10 mi
4:30 PM70 °FSunny.2 mph60%29.89 "Hg10 mi
4:00 PM72 °FPassing clouds.3 mph57%29.92 "HgN/A
3:30 PM72 °FPassing clouds.5 mph57%29.92 "HgN/A
3:00 PM72 °FPassing clouds.10 mph57%29.92 "HgN/A
2:30 PM70 °FPartly sunny.8 mph60%29.92 "HgN/A
2:00 PM70 °FBroken clouds.12 mph57%29.92 "HgN/A
1:30 PM70 °FPassing clouds.13 mph64%29.92 "HgN/A
1:00 PM68 °FBroken clouds.16 mph69%29.92 "HgN/A
12:30 PM70 °FPartly sunny.6 mph69%29.92 "HgN/A
12:00 PM73 °FPassing clouds.2 mph57%29.92 "HgN/A
11:30 AM73 °FPassing clouds.6 mph57%29.92 "HgN/A
11:00 AM72 °FPassing clouds.6 mph57%29.92 "HgN/A
10:30 AM70 °FPassing clouds.9 mph64%29.89 "HgN/A
10:00 AM70 °FPassing clouds.7 mph64%29.92 "HgN/A
9:30 AM66 °FPassing clouds.6 mph68%29.92 "HgN/A
9:00 AM68 °FSunny.7 mph64%29.92 "Hg10 mi
8:30 AM68 °FPassing clouds.6 mph69%29.92 "HgN/A
8:00 AM64 °FSunny.3 mph78%29.92 "Hg10 mi
Weather by CustomWeather, © 2014

See weather overviewHow to use our weather pages